This is the latest recevied weather packets stored in our database for station/object WE1C. If no packets are shown the sender has not sent any weather packets the latest 1 day(s).
| Time | Temp. | Humidity | Pressure | Rain* | Wind** | Luminosity | Snow |
|---|---|---|---|---|---|---|---|
| 1777982113 | 15.56° C | 65% | 1039.3 hPa | 0 mm | 0.89 m/s, 198° | 272 W/m² | - |
| 1777981811 | 15.56° C | 65% | 1038.9 hPa | 0 mm | 1.34 m/s, 202° | 177 W/m² | - |
| 1777981507 | 15.56° C | 65% | 1038.9 hPa | 0 mm | 0.89 m/s, 195° | 265 W/m² | - |
| 1777981204 | 15.56° C | 66% | 1038.9 hPa | 0 mm | 1.34 m/s, 205° | 210 W/m² | - |
| 1777980900 | 15° C | 66% | 1039 hPa | 0 mm | 0.89 m/s, 204° | 181 W/m² | - |
| 1777980595 | 15° C | 67% | 1039 hPa | 0 mm | 1.34 m/s, 222° | 173 W/m² | - |
| 1777980293 | 15° C | 67% | 1038.9 hPa | 0 mm | 0 m/s | 71 W/m² | - |
| 1777979990 | 14.44° C | 68% | 1038.9 hPa | 0 mm | 0.89 m/s, 216° | 67 W/m² | - |
| 1777979684 | 14.44° C | 68% | 1038.8 hPa | 0 mm | 0.45 m/s, 197° | 66 W/m² | - |
| 1777979380 | 14.44° C | 68% | 1038.4 hPa | 0 mm | 0.45 m/s, 336° | 68 W/m² | - |
| 1777979077 | 14.44° C | 68% | 1038.7 hPa | 0 mm | 0.89 m/s, 203° | 68 W/m² | - |
| 1777978774 | 14.44° C | 68% | 1038.5 hPa | 0 mm | 0 m/s | 69 W/m² | - |
| 1777978465 | 13.89° C | 68% | 1038.4 hPa | 0 mm | 0.89 m/s, 136° | 70 W/m² | - |
| 1777978161 | 13.89° C | 68% | 1038.5 hPa | 0 mm | 1.34 m/s, 200° | 72 W/m² | - |
| 1777977859 | 13.89° C | 69% | 1038.4 hPa | 0 mm | 1.34 m/s, 202° | 69 W/m² | - |
| 1777977555 | 13.89° C | 68% | 1038.3 hPa | 0 mm | 0 m/s | 60 W/m² | - |
| 1777977253 | 13.33° C | 69% | 1038.2 hPa | 0 mm | 0.89 m/s, 201° | 52 W/m² | - |
| 1777976949 | 13.33° C | 69% | 1038.3 hPa | 0 mm | 0 m/s | 43 W/m² | - |
| 1777976647 | 13.33° C | 69% | 1038.2 hPa | 0 mm | 0.45 m/s, 176° | 39 W/m² | - |
| 1777976343 | 13.33° C | 69% | 1038.4 hPa | 0 mm | 0.45 m/s, 180° | 36 W/m² | - |
| 1777976037 | 12.78° C | 69% | 1038.3 hPa | 0 mm | 0.45 m/s, 122° | 34 W/m² | - |
| 1777975733 | 12.78° C | 69% | 1038.2 hPa | 0 mm | 0.89 m/s, 156° | 29 W/m² | - |
| 1777975430 | 12.78° C | 69% | 1038.3 hPa | 0 mm | 0.45 m/s, 170° | 26 W/m² | - |
| 1777975126 | 12.78° C | 69% | 1038.3 hPa | 0 mm | 0 m/s | 22 W/m² | - |
| 1777974824 | 12.78° C | 69% | 1038.4 hPa | 0 mm | 0 m/s | 12 W/m² | - |
* Rain latest hour (hover to see other rain measurements)
** Current wind speed in m/s (hover to see current wind gust speed)